QPF
0.00 0.01 0.01 0.00 0.00 0.01 0.01 0.00 0.00 0.00 0.00 0.01 0.01 0.01 0.01 0.01 0.01 0.02 0.02 0.02 0.01 0.03 0.05 0.06 0.06 0.06 0.07 0.08 0.06 0.04 0.03 0.04 0.03 0.04 0.05 0.04 0.03 0.03 0.03 0.02 0.02 0.01 0.01 0.01
0.00 0.00 0.01 0.01 0.01 0.01 0.01 0.00 0.00 0.00 0.00 0.00 0.01 0.02 0.01 0.01 0.01 0.01 0.01 0.01 0.01 0.03 0.05 0.07 0.08 0.09 0.07 0.05 0.05 0.04 0.03 0.03 0.02 0.03 0.04 0.02 0.01 0.01 0.01 0.01 0.01 0.01 0.01 0.01
0.00 0.00 0.01 0.01 0.00 0.01 0.01 0.00 0.00 0.00 0.00 0.00 0.01 0.01 0.01 0.01 0.01 0.01 0.01 0.01 0.01 0.02 0.04 0.08 0.10 0.10 0.10 0.06 0.05 0.05 0.03 0.02 0.01 0.02 0.02 0.01 0.01 0.00 0.01 0.01 0.01 0.01 0.01 0.01
0.01 0.02 0.05 0.04 0.03 0.02 0.01 0.00 0.00 0.01 0.01 0.00 0.01 0.01 0.02 0.01 0.01 0.01 0.01 0.01 0.01 0.01 0.03 0.06 0.08 0.09 0.09 0.06 0.05 0.07 0.06 0.03 0.02 0.01 0.01 0.01 0.00 0.00 0.00 0.01 0.01 0.01 0.01 0.01
0.02 0.03 0.04 0.06 0.05 0.03 0.01 0.01 0.01 0.01 0.02 0.02 0.02 0.02 0.02 0.02 0.01 0.01 0.01 0.01 0.01 0.01 0.03 0.05 0.05 0.06 0.07 0.07 0.06 0.06 0.05 0.03 0.02 0.01 0.01 0.01 0.01 0.01 0.01 0.01 0.01 0.01 0.01 0.00
0.01 0.03 0.03 0.03 0.01 0.01 0.02 0.02 0.02 0.02 0.02 0.04 0.03 0.02 0.02 0.02 0.02 0.02 0.02 0.02 0.02 0.02 0.04 0.05 0.05 0.04 0.04 0.06 0.05 0.05 0.03 0.02 0.01 0.01 0.01 0.01 0.01 0.00 0.01 0.01 0.00 0.01 0.00 0.00
0.01 0.02 0.03 0.02 0.01 0.01 0.02 0.02 0.02 0.02 0.02 0.04 0.03 0.02 0.02 0.02 0.02 0.02 0.02 0.03 0.03 0.04 0.06 0.05 0.04 0.04 0.04 0.03 0.03 0.02 0.01 0.01 0.01 0.01 0.01 0.01 0.01 0.01 0.00 0.01 0.00 0.00 0.00 0.00
0.01 0.01 0.01 0.01 0.01 0.02 0.02 0.02 0.02 0.02 0.02 0.04 0.03 0.03 0.02 0.02 0.02 0.02 0.03 0.04 0.04 0.05 0.06 0.06 0.04 0.03 0.03 0.03 0.02 0.01 0.01 0.01 0.01 0.01 0.01 0.01 0.00 0.01 0.01 0.00 0.00 0.00 0.00 0.00
0.01 0.01 0.01 0.01 0.01 0.01 0.02 0.02 0.02 0.02 0.02 0.02 0.02 0.02 0.02 0.02 0.02 0.03 0.03 0.03 0.04 0.03 0.05 0.07 0.05 0.03 0.02 0.02 0.02 0.01 0.01 0.01 0.01 0.01 0.01 0.00 0.01 0.01 0.01 0.00 0.00 0.00 0.00 0.00
0.02 0.02 0.01 0.01 0.01 0.01 0.02 0.02 0.02 0.02 0.02 0.02 0.02 0.03 0.04 0.03 0.04 0.04 0.04 0.03 0.02 0.02 0.04 0.07 0.05 0.02 0.01 0.01 0.01 0.01 0.01 0.01 0.01 0.01 0.01 0.02 0.02 0.01 0.00 0.00 0.00 0.00 0.01 0.01
0.03 0.04 0.04 0.02 0.01 0.01 0.02 0.02 0.03 0.02 0.02 0.03 0.03 0.04 0.05 0.07 0.08 0.06 0.05 0.03 0.03 0.03 0.04 0.04 0.04 0.03 0.03 0.03 0.02 0.01 0.01 0.01 0.01 0.02 0.02 0.02 0.01 0.00 0.00 0.01 0.00 0.01 0.01 0.01
0.07 0.06 0.06 0.06 0.04 0.03 0.03 0.03 0.03 0.03 0.03 0.03 0.03 0.03 0.05 0.09 0.07 0.05 0.05 0.03 0.02 0.03 0.03 0.03 0.03 0.04 0.04 0.03 0.02 0.02 0.02 0.01 0.01 0.01 0.02 0.02 0.01 0.00 0.00 0.00 0.01 0.01 0.01 0.01
0.05 0.04 0.04 0.04 0.04 0.04 0.03 0.02 0.02 0.02 0.03 0.07 0.05 0.05 0.08 0.06 0.04 0.02 0.02 0.02 0.02 0.02 0.02 0.02 0.02 0.02 0.02 0.02 0.02 0.02 0.02 0.01 0.02 0.02 0.02 0.02 0.01 0.01 0.00 0.00 0.01 0.01 0.01 0.01
0.02 0.03 0.03 0.03 0.03 0.02 0.02 0.02 0.02 0.03 0.03 0.07 0.07 0.07 0.07 0.05 0.03 0.02 0.02 0.02 0.02 0.02 0.01 0.01 0.00 0.01 0.01 0.01 0.01 0.01 0.01 0.02 0.02 0.02 0.01 0.02 0.01 0.00 0.00 0.00 0.00 0.01 0.01 0.01
0.02 0.03 0.03 0.03 0.03 0.02 0.02 0.04 0.05 0.05 0.04 0.04 0.05 0.08 0.08 0.06 0.04 0.03 0.02 0.02 0.02 0.01 0.01 0.00 0.00 0.01 0.01 0.01 0.01 0.01 0.01 0.01 0.01 0.01 0.01 0.02 0.01 0.01 0.01 0.01 0.01 0.01 0.01 0.01
0.02 0.03 0.03 0.03 0.03 0.03 0.03 0.05 0.06 0.06 0.05 0.05 0.06 0.06 0.05 0.04 0.04 0.03 0.02 0.01 0.01 0.01 0.01 0.01 0.01 0.01 0.01 0.01 0.01 0.01 0.01 0.02 0.02 0.01 0.01 0.02 0.01 0.01 0.00 0.00 0.00 0.01 0.01 0.01
0.02 0.03 0.03 0.03 0.03 0.02 0.03 0.03 0.05 0.06 0.06 0.06 0.05 0.04 0.04 0.04 0.03 0.02 0.01 0.01 0.00 0.01 0.01 0.01 0.01 0.01 0.01 0.01 0.01 0.01 0.01 0.01 0.02 0.02 0.01 0.01 0.01 0.00 0.00 0.00 0.00 0.00 0.00 0.00
0.02 0.02 0.02 0.02 0.02 0.01 0.02 0.05 0.07 0.08 0.08 0.06 0.04 0.03 0.02 0.02 0.02 0.01 0.01 0.01 0.01 0.01 0.01 0.02 0.02 0.03 0.03 0.03 0.03 0.02 0.02 0.02 0.02 0.02 0.01 0.01 0.01 0.00 0.00 0.00 0.00 0.00 0.00 0.00
0.02 0.02 0.02 0.02 0.02 0.02 0.04 0.05 0.06 0.07 0.05 0.04 0.04 0.04 0.02 0.01 0.01 0.02 0.02 0.02 0.01 0.01 0.02 0.03 0.03 0.03 0.03 0.03 0.03 0.03 0.02 0.02 0.02 0.02 0.02 0.01 0.01 0.01 0.00 0.00 0.00 0.00 0.00 0.00
0.02 0.02 0.02 0.03 0.03 0.03 0.03 0.04 0.06 0.06 0.05 0.05 0.04 0.03 0.02 0.01 0.01 0.01 0.01 0.01 0.01 0.01 0.01 0.01 0.01 0.01 0.02 0.02 0.02 0.01 0.01 0.01 0.02 0.02 0.02 0.01 0.01 0.01 0.01 0.01 0.00 0.00 0.00 0.00
0.02 0.02 0.03 0.03 0.02 0.02 0.03 0.05 0.05 0.06 0.04 0.04 0.04 0.03 0.01 0.01 0.01 0.01 0.01 0.01 0.01 0.01 0.01 0.01 0.01 0.01 0.01 0.01 0.02 0.01 0.01 0.01 0.01 0.02 0.02 0.02 0.01 0.01 0.01 0.01 0.01 0.01 0.01 0.01
0.02 0.02 0.02 0.02 0.02 0.03 0.03 0.04 0.05 0.05 0.04 0.03 0.02 0.02 0.01 0.01 0.01 0.01 0.01 0.01 0.01 0.02 0.01 0.02 0.01 0.01 0.01 0.02 0.01 0.01 0.02 0.02 0.02 0.03 0.03 0.03 0.03 0.03 0.02 0.02 0.02 0.01 0.01 0.01
0.03 0.02 0.03 0.04 0.03 0.03 0.04 0.04 0.04 0.04 0.03 0.02 0.02 0.02 0.01 0.01 0.01 0.01 0.02 0.02 0.02 0.02 0.02 0.02 0.02 0.02 0.02 0.02 0.02 0.01 0.01 0.02 0.02 0.03 0.04 0.03 0.03 0.02 0.02 0.01 0.01 0.01 0.01 0.01
0.02 0.02 0.04 0.05 0.04 0.03 0.04 0.03 0.02 0.02 0.02 0.02 0.02 0.02 0.01 0.01 0.01 0.01 0.01 0.01 0.01 0.02 0.02 0.02 0.02 0.02 0.02 0.01 0.01 0.02 0.01 0.01 0.02 0.02 0.03 0.02 0.02 0.01 0.01 0.01 0.01 0.01 0.01 0.01
0.02 0.02 0.03 0.03 0.04 0.03 0.03 0.02 0.02 0.02 0.02 0.03 0.02 0.01 0.01 0.01 0.01 0.01 0.00 0.01 0.01 0.01 0.01 0.01 0.02 0.02 0.01 0.01 0.01 0.02 0.02 0.02 0.02 0.02 0.02 0.01 0.01 0.01 0.01 0.01 0.01 0.01 0.01 0.01
0.02 0.02 0.03 0.03 0.03 0.04 0.04 0.03 0.03 0.02 0.02 0.02 0.02 0.01 0.01 0.01 0.01 0.01 0.01 0.01 0.01 0.01 0.01 0.01 0.01 0.02 0.02 0.01 0.01 0.01 0.02 0.02 0.02 0.01 0.01 0.01 0.01 0.01 0.01 0.01 0.01 0.01 0.01 0.01
0.02 0.02 0.02 0.02 0.02 0.03 0.03 0.03 0.03 0.03 0.03 0.03 0.03 0.02 0.02 0.02 0.02 0.02 0.02 0.01 0.01 0.01 0.01 0.00 0.01 0.01 0.02 0.02 0.02 0.02 0.02 0.02 0.02 0.01 0.00 0.00 0.01 0.01 0.02 0.01 0.01 0.01 0.02 0.01
MSLP
1003.98 1003.13 1002.63 1002.50 1002.73 1003.29 1004.09 1005.02 1006.02 1006.99 1007.88 1008.67 1009.34 1009.92 1010.44 1010.93 1011.42 1011.93 1012.46 1013.02 1013.60 1014.18 1014.76 1015.34 1015.92 1016.50 1017.09 1017.68 1018.26 1018.83 1019.38 1019.89 1020.34 1020.74 1021.09 1021.37 1021.61 1021.81 1021.97 1022.10 1022.19 1022.24 1022.25 1022.21
1004.28 1003.27 1002.54 1002.14 1002.08 1002.35 1002.90 1003.65 1004.54 1005.51 1006.48 1007.42 1008.30 1009.11 1009.85 1010.53 1011.17 1011.77 1012.35 1012.91 1013.47 1014.04 1014.61 1015.21 1015.83 1016.47 1017.12 1017.79 1018.45 1019.08 1019.68 1020.21 1020.68 1021.07 1021.39 1021.66 1021.88 1022.06 1022.21 1022.33 1022.42 1022.48 1022.50 1022.47
1004.32 1003.24 1002.39 1001.80 1001.52 1001.56 1001.89 1002.47 1003.25 1004.17 1005.19 1006.24 1007.29 1008.29 1009.22 1010.08 1010.85 1011.55 1012.19 1012.78 1013.34 1013.90 1014.48 1015.08 1015.73 1016.41 1017.13 1017.85 1018.57 1019.25 1019.88 1020.43 1020.89 1021.27 1021.58 1021.82 1022.01 1022.17 1022.30 1022.42 1022.51 1022.58 1022.62 1022.61
1004.05 1003.00 1002.12 1001.45 1001.03 1000.90 1001.05 1001.47 1002.14 1003.00 1004.02 1005.14 1006.29 1007.44 1008.53 1009.54 1010.46 1011.27 1011.99 1012.63 1013.22 1013.80 1014.39 1015.01 1015.68 1016.39 1017.14 1017.91 1018.65 1019.36 1020.00 1020.55 1021.00 1021.36 1021.63 1021.84 1022.01 1022.15 1022.27 1022.38 1022.48 1022.56 1022.62 1022.65
1003.53 1002.59 1001.75 1001.06 1000.58 1000.34 1000.36 1000.65 1001.20 1001.98 1002.97 1004.09 1005.31 1006.56 1007.78 1008.92 1009.97 1010.90 1011.72 1012.44 1013.10 1013.72 1014.35 1015.00 1015.69 1016.43 1017.20 1017.97 1018.73 1019.43 1020.06 1020.59 1021.02 1021.35 1021.59 1021.77 1021.91 1022.03 1022.14 1022.25 1022.36 1022.46 1022.54 1022.60
1002.87 1002.06 1001.32 1000.67 1000.17 999.87 999.79 999.96 1000.40 1001.10 1002.02 1003.12 1004.36 1005.67 1006.97 1008.23 1009.40 1010.45 1011.39 1012.22 1012.96 1013.66 1014.34 1015.04 1015.76 1016.51 1017.28 1018.05 1018.79 1019.47 1020.06 1020.56 1020.96 1021.26 1021.47 1021.63 1021.76 1021.87 1021.97 1022.09 1022.21 1022.33 1022.43 1022.51
1002.21 1001.54 1000.90 1000.31 999.83 999.48 999.33 999.41 999.75 1000.34 1001.19 1002.25 1003.47 1004.80 1006.16 1007.51 1008.78 1009.95 1011.01 1011.95 1012.80 1013.59 1014.34 1015.09 1015.83 1016.59 1017.36 1018.10 1018.81 1019.45 1020.01 1020.47 1020.84 1021.11 1021.31 1021.46 1021.58 1021.70 1021.81 1021.94 1022.07 1022.21 1022.33 1022.42
1001.67 1001.11 1000.55 1000.02 999.55 999.19 998.99 998.99 999.24 999.74 1000.50 1001.50 1002.69 1004.02 1005.41 1006.81 1008.17 1009.44 1010.61 1011.66 1012.62 1013.49 1014.31 1015.11 1015.88 1016.64 1017.39 1018.11 1018.78 1019.38 1019.90 1020.33 1020.67 1020.93 1021.13 1021.29 1021.42 1021.55 1021.69 1021.83 1021.98 1022.13 1022.26 1022.37
1001.32 1000.82 1000.32 999.82 999.36 998.99 998.75 998.70 998.88 999.31 1000.00 1000.94 1002.08 1003.39 1004.79 1006.22 1007.63 1008.98 1010.23 1011.37 1012.41 1013.36 1014.24 1015.07 1015.86 1016.62 1017.35 1018.03 1018.67 1019.23 1019.72 1020.13 1020.46 1020.72 1020.93 1021.11 1021.27 1021.43 1021.60 1021.76 1021.93 1022.09 1022.22 1022.33
1001.18 1000.70 1000.21 999.71 999.26 998.88 998.62 998.54 998.68 999.07 999.71 1000.60 1001.71 1002.98 1004.37 1005.81 1007.24 1008.62 1009.91 1011.11 1012.20 1013.19 1014.11 1014.96 1015.75 1016.51 1017.21 1017.87 1018.47 1019.01 1019.48 1019.88 1020.21 1020.49 1020.73 1020.94 1021.13 1021.32 1021.51 1021.70 1021.88 1022.05 1022.18 1022.29
1001.22 1000.71 1000.19 999.68 999.22 998.84 998.59 998.51 998.65 999.03 999.65 1000.52 1001.60 1002.84 1004.20 1005.62 1007.03 1008.40 1009.70 1010.91 1012.01 1013.02 1013.94 1014.78 1015.57 1016.31 1017.00 1017.63 1018.21 1018.73 1019.19 1019.60 1019.94 1020.24 1020.51 1020.75 1020.98 1021.20 1021.41 1021.61 1021.79 1021.96 1022.09 1022.19
1001.37 1000.79 1000.22 999.68 999.22 998.85 998.63 998.59 998.77 999.18 999.82 1000.69 1001.76 1002.98 1004.30 1005.67 1007.04 1008.37 1009.62 1010.79 1011.86 1012.84 1013.74 1014.57 1015.34 1016.05 1016.72 1017.34 1017.91 1018.42 1018.89 1019.30 1019.66 1019.99 1020.27 1020.54 1020.78 1021.02 1021.23 1021.44 1021.62 1021.78 1021.91 1022.00
1001.53 1000.87 1000.25 999.68 999.22 998.89 998.73 998.76 999.01 999.49 1000.18 1001.08 1002.15 1003.35 1004.62 1005.93 1007.22 1008.48 1009.66 1010.75 1011.76 1012.69 1013.54 1014.33 1015.07 1015.76 1016.42 1017.02 1017.59 1018.11 1018.58 1019.00 1019.38 1019.72 1020.02 1020.29 1020.54 1020.77 1020.98 1021.17 1021.35 1021.49 1021.61 1021.71
1001.67 1000.93 1000.25 999.67 999.23 998.95 998.87 999.00 999.34 999.91 1000.68 1001.62 1002.70 1003.87 1005.10 1006.33 1007.54 1008.69 1009.77 1010.77 1011.69 1012.55 1013.34 1014.09 1014.80 1015.47 1016.11 1016.72 1017.28 1017.81 1018.29 1018.72 1019.10 1019.44 1019.74 1020.00 1020.24 1020.45 1020.64 1020.82 1020.97 1021.11 1021.23 1021.33
1001.78 1000.96 1000.25 999.66 999.25 999.05 999.06 999.29 999.75 1000.41 1001.25 1002.24 1003.33 1004.48 1005.64 1006.79 1007.90 1008.94 1009.91 1010.80 1011.63 1012.41 1013.15 1013.85 1014.52 1015.18 1015.81 1016.42 1016.99 1017.52 1018.00 1018.43 1018.81 1019.14 1019.43 1019.67 1019.89 1020.07 1020.24 1020.39 1020.53 1020.66 1020.78 1020.90
1001.88 1001.02 1000.29 999.72 999.36 999.22 999.33 999.67 1000.22 1000.97 1001.87 1002.88 1003.97 1005.08 1006.17 1007.23 1008.23 1009.16 1010.02 1010.81 1011.55 1012.26 1012.93 1013.59 1014.25 1014.89 1015.52 1016.12 1016.70 1017.23 1017.71 1018.13 1018.50 1018.82 1019.08 1019.30 1019.49 1019.65 1019.80 1019.93 1020.06 1020.19 1020.33 1020.47
1002.07 1001.18 1000.45 999.91 999.60 999.54 999.72 1000.14 1000.76 1001.56 1002.49 1003.50 1004.56 1005.61 1006.63 1007.59 1008.48 1009.30 1010.06 1010.76 1011.42 1012.06 1012.70 1013.32 1013.96 1014.59 1015.21 1015.81 1016.38 1016.91 1017.38 1017.79 1018.14 1018.44 1018.68 1018.88 1019.05 1019.19 1019.33 1019.46 1019.60 1019.75 1019.91 1020.08
1002.41 1001.54 1000.83 1000.32 1000.06 1000.05 1000.28 1000.73 1001.39 1002.19 1003.10 1004.08 1005.07 1006.04 1006.96 1007.82 1008.61 1009.34 1010.00 1010.63 1011.23 1011.83 1012.43 1013.03 1013.65 1014.27 1014.88 1015.47 1016.02 1016.53 1016.99 1017.38 1017.71 1017.99 1018.21 1018.40 1018.56 1018.70 1018.85 1018.99 1019.15 1019.33 1019.53 1019.75
1002.99 1002.15 1001.48 1001.01 1000.78 1000.79 1001.04 1001.49 1002.12 1002.87 1003.72 1004.61 1005.50 1006.37 1007.18 1007.94 1008.63 1009.27 1009.87 1010.44 1011.00 1011.57 1012.14 1012.73 1013.33 1013.93 1014.52 1015.08 1015.61 1016.09 1016.52 1016.88 1017.19 1017.45 1017.66 1017.85 1018.01 1018.18 1018.34 1018.52 1018.72 1018.94 1019.19 1019.45
1003.83 1003.04 1002.41 1001.99 1001.77 1001.78 1002.00 1002.40 1002.95 1003.61 1004.34 1005.10 1005.87 1006.61 1007.31 1007.96 1008.56 1009.14 1009.68 1010.22 1010.75 1011.30 1011.86 1012.43 1013.01 1013.59 1014.15 1014.67 1015.16 1015.60 1015.98 1016.31 1016.59 1016.83 1017.04 1017.23 1017.41 1017.60 1017.81 1018.03 1018.27 1018.54 1018.82 1019.12
1004.88 1004.17 1003.60 1003.20 1002.99 1002.96 1003.12 1003.42 1003.85 1004.37 1004.96 1005.57 1006.18 1006.78 1007.36 1007.92 1008.45 1008.96 1009.48 1009.99 1010.52 1011.06 1011.61 1012.17 1012.72 1013.26 1013.78 1014.25 1014.68 1015.07 1015.40 1015.68 1015.93 1016.15 1016.36 1016.56 1016.76 1016.99 1017.23 1017.49 1017.78 1018.08 1018.40 1018.73
1006.09 1005.45 1004.93 1004.55 1004.33 1004.26 1004.32 1004.50 1004.79 1005.14 1005.55 1005.99 1006.45 1006.91 1007.38 1007.84 1008.31 1008.78 1009.27 1009.78 1010.31 1010.85 1011.39 1011.93 1012.46 1012.96 1013.43 1013.85 1014.21 1014.53 1014.81 1015.05 1015.26 1015.46 1015.65 1015.86 1016.08 1016.33 1016.60 1016.90 1017.22 1017.55 1017.89 1018.23
1007.32 1006.76 1006.30 1005.94 1005.69 1005.55 1005.51 1005.56 1005.68 1005.86 1006.10 1006.36 1006.67 1006.99 1007.35 1007.73 1008.15 1008.59 1009.07 1009.58 1010.11 1010.65 1011.20 1011.72 1012.22 1012.68 1013.10 1013.45 1013.76 1014.02 1014.23 1014.42 1014.60 1014.77 1014.95 1015.16 1015.39 1015.65 1015.94 1016.25 1016.58 1016.92 1017.26 1017.60
1008.46 1007.98 1007.57 1007.22 1006.94 1006.73 1006.59 1006.50 1006.47 1006.49 1006.55 1006.66 1006.82 1007.02 1007.28 1007.59 1007.96 1008.38 1008.86 1009.37 1009.90 1010.44 1010.98 1011.49 1011.97 1012.39 1012.76 1013.06 1013.31 1013.51 1013.68 1013.82 1013.96 1014.11 1014.28 1014.47 1014.70 1014.96 1015.24 1015.55 1015.88 1016.21 1016.54 1016.86
1009.40 1009.00 1008.63 1008.29 1007.99 1007.72 1007.48 1007.28 1007.11 1006.98 1006.89 1006.86 1006.89 1006.99 1007.16 1007.41 1007.74 1008.13 1008.59 1009.09 1009.63 1010.17 1010.69 1011.19 1011.64 1012.04 1012.37 1012.63 1012.84 1013.00 1013.13 1013.25 1013.36 1013.48 1013.63 1013.81 1014.02 1014.26 1014.53 1014.82 1015.12 1015.43 1015.74 1016.03
1010.08 1009.74 1009.42 1009.09 1008.77 1008.46 1008.15 1007.85 1007.57 1007.32 1007.12 1006.97 1006.89 1006.89 1006.99 1007.18 1007.46 1007.82 1008.25 1008.74 1009.25 1009.78 1010.29 1010.77 1011.20 1011.57 1011.88 1012.12 1012.31 1012.45 1012.56 1012.66 1012.76 1012.86 1013.00 1013.16 1013.35 1013.57 1013.81 1014.07 1014.34 1014.61 1014.88 1015.15
1010.48 1010.21 1009.92 1009.62 1009.30 1008.95 1008.60 1008.23 1007.88 1007.54 1007.25 1007.01 1006.85 1006.77 1006.80 1006.92 1007.14 1007.45 1007.84 1008.29 1008.78 1009.27 1009.76 1010.22 1010.63 1010.98 1011.27 1011.51 1011.69 1011.83 1011.94 1012.03 1012.13 1012.23 1012.35 1012.50 1012.66 1012.85 1013.06 1013.28 1013.51 1013.75 1013.99 1014.23
Thickness
5680 5687 5686 5684 5685 5682 5675 5672 5667 5675 5677 5687 5690 5691 5691 5690 5689 5687 5685 5683 5682 5679 5677 5676 5676 5674 5673 5672 5670 5668 5666 5664 5662 5661 5659 5656 5654 5652 5651 5650 5649 5648 5646 5645
5675 5683 5682 5680 5684 5683 5681 5679 5675 5677 5679 5690 5690 5689 5688 5687 5686 5683 5682 5681 5680 5678 5676 5674 5674 5672 5671 5669 5667 5665 5663 5661 5659 5657 5655 5652 5650 5649 5647 5646 5645 5643 5642 5640
5659 5673 5674 5667 5680 5681 5680 5680 5678 5672 5680 5686 5684 5684 5684 5684 5683 5681 5680 5679 5677 5676 5675 5674 5672 5670 5668 5667 5665 5662 5660 5658 5656 5654 5651 5649 5648 5645 5643 5641 5639 5638 5637 5636
5648 5657 5650 5670 5686 5684 5679 5680 5680 5680 5681 5681 5682 5682 5682 5681 5679 5678 5677 5676 5675 5674 5673 5671 5670 5668 5666 5664 5661 5658 5656 5655 5653 5651 5649 5646 5644 5642 5639 5637 5635 5634 5632 5631
5639 5642 5651 5668 5678 5677 5672 5673 5678 5676 5676 5676 5675 5675 5674 5678 5677 5676 5674 5674 5673 5672 5671 5668 5666 5665 5661 5659 5657 5654 5653 5651 5650 5648 5646 5643 5641 5639 5637 5634 5632 5630 5628 5627
5637 5640 5643 5660 5676 5680 5674 5665 5676 5674 5671 5669 5668 5661 5667 5674 5674 5672 5671 5670 5669 5668 5667 5665 5663 5660 5657 5654 5652 5651 5650 5649 5648 5645 5643 5640 5637 5635 5633 5631 5629 5627 5625 5623
5633 5633 5644 5661 5670 5673 5654 5657 5672 5670 5668 5665 5663 5665 5667 5669 5669 5668 5667 5667 5666 5664 5662 5661 5659 5656 5652 5650 5649 5649 5648 5646 5644 5642 5639 5637 5634 5632 5630 5628 5626 5624 5622 5620
5625 5626 5636 5659 5660 5654 5654 5663 5665 5665 5664 5662 5661 5662 5663 5663 5662 5662 5661 5661 5660 5658 5657 5656 5655 5652 5649 5646 5646 5645 5644 5642 5640 5639 5637 5635 5632 5629 5627 5624 5622 5619 5617 5616
5627 5632 5644 5649 5651 5655 5656 5656 5659 5659 5660 5658 5657 5656 5657 5656 5656 5655 5655 5655 5654 5653 5652 5651 5650 5648 5645 5645 5643 5641 5638 5637 5635 5634 5633 5631 5628 5625 5623 5621 5619 5616 5614 5613
5625 5635 5640 5645 5648 5652 5652 5653 5655 5656 5656 5654 5652 5652 5651 5650 5649 5649 5648 5647 5647 5647 5646 5645 5645 5644 5642 5641 5638 5636 5633 5632 5630 5629 5628 5627 5624 5622 5620 5618 5616 5615 5613 5611
5620 5628 5633 5639 5641 5644 5647 5648 5649 5650 5650 5649 5647 5646 5645 5644 5644 5643 5643 5642 5642 5641 5641 5641 5641 5639 5638 5636 5633 5630 5629 5627 5626 5625 5624 5622 5621 5619 5618 5617 5616 5613 5612 5610
5614 5621 5622 5628 5635 5638 5639 5640 5641 5642 5642 5642 5642 5640 5640 5638 5638 5637 5637 5636 5636 5636 5636 5636 5636 5635 5633 5632 5629 5627 5625 5623 5622 5620 5619 5618 5616 5615 5615 5614 5613 5611 5609 5607
5616 5620 5621 5626 5630 5632 5632 5633 5634 5636 5636 5636 5636 5636 5634 5632 5632 5632 5631 5631 5631 5631 5631 5631 5630 5630 5630 5628 5626 5624 5622 5620 5618 5616 5615 5613 5612 5611 5610 5610 5609 5608 5606 5604
5613 5614 5616 5620 5622 5625 5626 5627 5628 5629 5630 5631 5631 5630 5629 5627 5627 5626 5626 5627 5627 5626 5625 5625 5625 5625 5625 5624 5622 5621 5619 5617 5615 5613 5612 5611 5609 5608 5607 5606 5605 5604 5602 5600
5608 5610 5611 5615 5617 5618 5620 5620 5621 5621 5623 5623 5624 5624 5623 5622 5621 5621 5622 5622 5621 5620 5620 5620 5620 5621 5621 5620 5618 5617 5616 5614 5612 5610 5609 5608 5607 5605 5604 5602 5601 5600 5598 5597
5602 5605 5607 5608 5609 5611 5612 5614 5614 5615 5616 5616 5617 5618 5619 5618 5617 5617 5616 5616 5614 5614 5615 5615 5615 5616 5616 5615 5614 5613 5612 5611 5609 5607 5606 5604 5603 5602 5601 5600 5598 5597 5596 5595
5592 5595 5598 5600 5602 5605 5606 5608 5610 5611 5612 5612 5613 5614 5614 5613 5612 5611 5611 5611 5610 5610 5610 5609 5610 5611 5611 5611 5610 5609 5608 5607 5605 5604 5603 5602 5601 5599 5598 5597 5596 5595 5594 5593
5590 5592 5595 5596 5597 5599 5601 5604 5605 5606 5607 5608 5609 5608 5608 5607 5606 5606 5606 5605 5605 5604 5605 5605 5606 5606 5606 5606 5605 5605 5604 5603 5602 5601 5600 5599 5598 5597 5596 5595 5595 5593 5592 5590
5585 5588 5590 5592 5594 5594 5596 5598 5599 5601 5603 5604 5603 5603 5603 5602 5602 5601 5600 5599 5599 5599 5600 5601 5601 5601 5601 5601 5601 5601 5601 5600 5598 5597 5597 5596 5595 5595 5594 5593 5592 5591 5589 5587
5579 5582 5584 5586 5588 5589 5590 5592 5594 5595 5597 5598 5598 5597 5597 5597 5597 5596 5594 5593 5594 5595 5597 5597 5597 5597 5597 5597 5597 5597 5597 5596 5595 5594 5594 5593 5592 5591 5591 5590 5589 5588 5586 5585
5572 5575 5577 5579 5581 5584 5585 5587 5589 5590 5591 5592 5592 5592 5591 5591 5591 5590 5589 5589 5591 5592 5592 5593 5593 5593 5593 5592 5592 5593 5592 5592 5592 5592 5591 5590 5589 5588 5587 5586 5585 5584 5583 5582
5564 5567 5570 5572 5574 5576 5579 5581 5583 5584 5585 5586 5587 5587 5586 5586 5586 5585 5586 5586 5588 5588 5588 5589 5589 5589 5589 5588 5589 5589 5588 5588 5588 5588 5587 5586 5585 5584 5583 5582 5581 5580 5579 5578
5557 5559 5562 5564 5566 5568 5571 5574 5576 5578 5579 5580 5581 5581 5581 5580 5580 5580 5581 5583 5584 5584 5584 5585 5585 5585 5584 5585 5585 5584 5584 5584 5584 5584 5583 5582 5581 5580 5579 5578 5577 5576 5574 5573
5550 5553 5555 5557 5559 5561 5563 5566 5568 5570 5572 5574 5575 5576 5576 5575 5575 5576 5578 5579 5579 5579 5580 5581 5581 5580 5580 5580 5580 5580 5579 5579 5578 5578 5578 5577 5576 5576 5575 5574 5572 5571 5570 5569
5543 5545 5548 5550 5551 5553 5555 5558 5560 5562 5565 5567 5569 5570 5570 5571 5571 5572 5573 5574 5574 5575 5576 5577 5576 5575 5575 5575 5575 5574 5574 5574 5574 5573 5573 5572 5572 5571 5570 5569 5568 5567 5566 5565
5535 5537 5540 5542 5544 5546 5549 5551 5553 5555 5556 5558 5560 5562 5563 5564 5565 5566 5568 5569 5570 5570 5570 5571 5571 5570 5570 5569 5569 5569 5569 5568 5568 5567 5567 5568 5567 5566 5565 5564 5564 5563 5562 5561
5528 5530 5533 5536 5539 5541 5543 5545 5546 5548 5550 5552 5553 5556 5557 5559 5560 5561 5562 5563 5564 5565 5565 5566 5566 5565 5565 5564 5564 5563 5563 5563 5562 5562 5562 5562 5562 5561 5560 5560 5559 5559 5558 5557